Regional Weather Roundup
Issued by NWS Upton, NY

Current Version | Previous Version | Text Only | Print | Product List | Glossary On
Versions: 1 2 3 4 5 6 7 8 9 10 11 12 13 14 15 16 17 18 19 20 21 22 23 24 25 26 27 28 29 30 31 32 33 34 35 36 37 38 39 40 41 42 43 44 45 46 47
000
ASUS41 KOKX 281805
RWROKX

REGIONAL WEATHER ROUNDUP
NATIONAL WEATHER SERVICE NEW YORK NY
100 PM EST FRI NOV 28 2014

NOTE: "FAIR" INDICATES FEW OR NO CLOUDS BELOW 12,000 FEET WITH NO
SIGNIFICANT WEATHER AND/OR OBSTRUCTIONS TO VISIBILITY.

NYZ071-072-176-178-NJZ106-104-281900-
NEW YORK CITY METRO AREA


CITY           SKY/WX    TMP DP  RH WIND       PRES   REMARKS
CENTRAL PARK   CLOUDY    36  19  50 VRB6G22   30.17F WCI  31
LAGUARDIA APRT CLOUDY    36  21  54 NW16G25   30.15F WCI  26
KENNEDY INTL   PTSUNNY   37  18  46 NW16G24   30.16S WCI  28
NEWARK/LIBERTY MOSUNNY   36  17  46 NW14G24   30.17S WCI  27
BRNX BOT. GARD   N/A    N/A N/A N/A NW13      30.17S
TETERBORO      MOSUNNY   36  17  46 NW15G25   30.15F WCI  27
$$

NYZ177-179-078>081-281900-
LONG ISLAND NEW YORK

CITY           SKY/WX    TMP DP  RH WIND       PRES   REMARKS
FARMINGDALE    PTSUNNY   40  19  43 NW15G21   30.13F WCI  32
ISLIP          MOSUNNY   38  19  46 NW16      30.10S WCI  29
SHIRLEY        SUNNY     38  20  48 NW15G22   30.11F WCI  29
WESTHAMPTON    SUNNY     38  20  48 NW17G26   30.11S WCI  28
MONTAUK POINT    N/A     39  21  48 NW15G24   30.08F WCI  31
$$

NYZ052-065-067-281900-
HUDSON VALLEY

CITY           SKY/WX    TMP DP  RH WIND       PRES   REMARKS
WHITE PLAINS   PTSUNNY   35  21  56 NW16G22   30.11F WCI  25
NEWBURGH       PTSUNNY   32  21  64 W17       30.14S WCI  21
MONTGOMERY     SUNNY     32  18  56 NW8       30.13S WCI  25
POUGHKEEPSIE   PTSUNNY   35  20  54 W9        30.13F WCI  28
ALBANY         PTSUNNY   30  17  58 W17       30.14F WCI  18
$$

NJZ001-105-106-008-010-013-015-019>022-104-281900-
NEW JERSEY

CITY           SKY/WX    TMP DP  RH WIND       PRES   REMARKS
NEWARK/LIBERTY MOSUNNY   36  17  46 NW14G24   30.17S WCI  27
TETERBORO      MOSUNNY   36  17  46 NW15G25   30.15F WCI  27
CALDWELL       CLOUDY    33  18  53 NW12G21   30.17S WCI  24
MORRISTOWN     MOSUNNY   36  18  48 N17G25    30.17S WCI  25
SOMERVILLE     MOSUNNY   36  17  46 NW14G22   30.17F WCI  27
SUSSEX         MOSUNNY   33  16  49 NW8G17    30.16S WCI  26
ANDOVER          N/A     32  16  51 VRB6      30.17S WCI  26
TRENTON        PTSUNNY   36  16  44 NW14      30.19S WCI  27
MILLVILLE      PTSUNNY   41  18  39 NW18G29   30.21S
ATLANTIC CITY  CLOUDY    38  19  46 NW15      30.19S WCI  29
WRIGHTSTOWN    PTSUNNY   36  16  44 NW13G21   30.17R WCI  27
TOMS RIVER     CLOUDY    37  19  48 NW8       30.18S WCI  31
BELMAR         CLOUDY    36  18  48 NW15G24   30.16S WCI  26
$$

PAZ047>061-062-071-281900-
EASTERN PENNSYLVANIA

CITY           SKY/WX    TMP DP  RH WIND       PRES   REMARKS
PHILADELPHIA   MOSUNNY   37  17  44 NW15      30.22F WCI  28
ALLENTOWN      MOSUNNY   32  12  43 NW17G23   30.21S WCI  21
SCRANTON       MOSUNNY   27  11  51 NW13G23   30.18F WCI  16
$$

CTZ002-004>006-009-010-012-RIZ004-006-007-MAZ004-011-015-281900-
SOUTHERN NEW ENGLAND
 IN CT

CITY           SKY/WX    TMP DP  RH WIND       PRES   REMARKS
BRADLEY INTL   MOSUNNY   36  18  48 NW15      30.09F WCI  27
HARTFORD       MOSUNNY   35  18  49 W14G22    30.11S WCI  26
DANBURY        MOSUNNY   34  17  50 W12       30.12S WCI  25
WTRBRY/OXFORD  MOSUNNY   32  16  51 N12G17    30.09S WCI  23
BRIDGEPORT     MOSUNNY   39  20  46 W15G23    30.12S WCI  31
MERIDEN        SUNNY     36  19  50 NW14G21   30.10F WCI  27
NEW HAVEN      MOSUNNY   40  19  43 N15G24    30.10F WCI  32
CHESTER        FAIR      34  19  55 NW13G23   30.08F WCI  25
GROTON         SUNNY     37  19  48 NW20G28   30.07F WCI  27
WILLIMANTIC    MOSUNNY   36  19  50 N12G25    30.08F WCI  28

 IN RI

CITY           SKY/WX    TMP DP  RH WIND       PRES   REMARKS
PROVIDENCE     PTSUNNY   36  21  54 NW15G22   30.06F WCI  27
BLOCK ISLAND   MOSUNNY   37  21  52 N13G20    30.05F WCI  29
WESTERLY       MOSUNNY   38  20  48 NW13G20   30.07F WCI  30

 IN MA

CITY           SKY/WX    TMP DP  RH WIND       PRES   REMARKS
BOSTON         PTSUNNY   34  22  61 NW13      30.06F WCI  25
WORCESTER      CLOUDY    30  21  69 NW16G25   30.02S WCI  19
WESTFIELD      MOSUNNY   33  17  51 NW15G25   30.09F WCI  23
PROVINCETOWN   CLOUDY    34  25  69 NW22G29   30.03R WCI  22
NANTUCKET      FLURRIES  35  27  72 NW24G35   30.01R WCI  23
$$

ANZ330-335-338-340-345-350-353-355-281900-
COASTAL MARINE OBSERVATIONS


STATION/POSITION TIME  SKY/WX   TEMP    WIND        PRES    VSBY  WAVE
                                AIR SEA DIR/SP/G                  HT/PER
                 (UTC)          (F)     (DEG/KT/KT) (MB)    (MI)  (FT/S)
NY HARB ENTRANCE 1800            37 54  310/ 19/ 25 1020.8          3/ 4
4S FIRE IS       1800               52                N/A           3/11
20S FIRE ISLAND  1800            38 54  320/ 19/ 25 1019.7          4/ 5
23SW MTP         1800                                 N/A           4/ 5
HUDSON CANYON    1800            40 58  320/ 19/ 25 1019.0          7/ 6
EXECUTION ROCKS  1800            38 47  290/ 17/ 23   N/A
WESTERN LI SOUND 1800            36     310/ 17/ 21   N/A           1/ 3
CENTRAL LI SOUND 1700            36 50  330/ 17/ 21   N/A           2/ 4
EASTERN LI SOUND 1700            38 51  320/ 16/ 21   N/A
ROBBINS REEF     1800            35     300/ 18/ 23 1020.1
$$


>>>>>>>>>>>>>>>>>>>>>>>>>>>> KEY <<<<<<<<<<<<<<<<<<<<<<<<<<<
>                                                          <
>     SKY/WX - SKY CONDITION/PRESENT WEATHER               <
>     TMP    - TEMPERATURE IN FAHRENHEIT                   <
>     DP     - DEWPOINT IN FAHRENHEIT                      <
>     RH     - RELATIVE HUMIDITY IN PERCENT                <
>     WIND   - DIRECTION AND SPEED IN MPH                  <
>     PRES   - MEAN SEA LEVEL PRESSURE IN INCHES OF HG     <
>     WCI    - WIND CHILL INDEX                            <
>     VSB    - VISIBILITY IN MILES                         <
>     HX     - HEAT INDEX                                  <
>     TC     - TEMPERATURE IN CELSIUS                      <
>     VRB    - VARIABLE WIND DIRECTION                     <
>                                                          <
>>>>>>>>>>>>>>>>>>>>>>>>>>>> KEY <<<<<<<<<<<<<<<<<<<<<<<<<<<




USA.gov is the U.S. government's official web portal to all federal, state and local government web resources and services.